QPF
0.03 0.02 0.02 0.02 0.02 0.01 0.02 0.02 0.06 0.10 0.09 0.09 0.10 0.11 0.15 0.08 0.06 0.07 0.07 0.06 0.06 0.06 0.05 0.05 0.03 0.03 0.02 0.02 0.02 0.01 0.01 0.02 0.02 0.02 0.01 0.01 0.02 0.02 0.01 0.01 0.01 0.01 0.02 0.02
0.03 0.02 0.03 0.02 0.01 0.02 0.02 0.01 0.03 0.08 0.08 0.05 0.08 0.11 0.14 0.09 0.06 0.08 0.07 0.06 0.06 0.05 0.05 0.05 0.04 0.03 0.02 0.02 0.02 0.02 0.02 0.02 0.01 0.01 0.01 0.01 0.01 0.02 0.02 0.01 0.01 0.01 0.01 0.02
0.04 0.02 0.03 0.06 0.03 0.03 0.03 0.02 0.03 0.06 0.08 0.05 0.06 0.11 0.18 0.14 0.08 0.07 0.06 0.05 0.05 0.04 0.04 0.04 0.05 0.04 0.03 0.03 0.02 0.02 0.01 0.01 0.01 0.01 0.01 0.01 0.02 0.03 0.04 0.03 0.02 0.02 0.02 0.02
0.06 0.05 0.07 0.06 0.02 0.03 0.04 0.02 0.03 0.04 0.04 0.04 0.04 0.05 0.08 0.09 0.07 0.06 0.05 0.04 0.04 0.03 0.03 0.04 0.05 0.04 0.04 0.03 0.03 0.02 0.02 0.01 0.01 0.01 0.01 0.02 0.03 0.04 0.05 0.05 0.03 0.02 0.03 0.03
0.07 0.08 0.10 0.06 0.02 0.03 0.05 0.05 0.02 0.03 0.04 0.03 0.04 0.06 0.05 0.06 0.06 0.06 0.06 0.07 0.09 0.09 0.06 0.03 0.03 0.03 0.03 0.03 0.03 0.02 0.02 0.02 0.02 0.01 0.02 0.02 0.03 0.05 0.06 0.05 0.04 0.02 0.02 0.03
0.06 0.08 0.13 0.11 0.02 0.01 0.04 0.08 0.03 0.04 0.05 0.05 0.07 0.12 0.09 0.06 0.04 0.04 0.06 0.07 0.06 0.06 0.03 0.02 0.02 0.02 0.03 0.02 0.03 0.03 0.03 0.02 0.02 0.02 0.02 0.02 0.04 0.06 0.06 0.05 0.04 0.02 0.02 0.04
0.07 0.09 0.10 0.03 0.01 0.03 0.09 0.11 0.07 0.03 0.03 0.05 0.10 0.12 0.06 0.03 0.02 0.03 0.04 0.04 0.03 0.02 0.02 0.02 0.02 0.03 0.04 0.03 0.03 0.03 0.03 0.04 0.03 0.02 0.02 0.03 0.04 0.05 0.05 0.05 0.04 0.03 0.03 0.05
0.06 0.08 0.07 0.02 0.01 0.04 0.07 0.08 0.06 0.03 0.02 0.03 0.05 0.05 0.03 0.02 0.02 0.03 0.04 0.04 0.03 0.03 0.03 0.03 0.03 0.04 0.04 0.03 0.02 0.02 0.04 0.05 0.04 0.02 0.02 0.02 0.02 0.03 0.04 0.03 0.04 0.04 0.04 0.05
0.05 0.06 0.03 0.01 0.01 0.02 0.03 0.04 0.04 0.04 0.03 0.04 0.03 0.03 0.02 0.02 0.03 0.05 0.06 0.06 0.04 0.04 0.04 0.04 0.05 0.05 0.05 0.05 0.03 0.02 0.04 0.03 0.03 0.01 0.01 0.01 0.02 0.02 0.02 0.02 0.02 0.02 0.02 0.03
0.02 0.01 0.00 0.00 0.01 0.01 0.01 0.02 0.02 0.03 0.02 0.02 0.04 0.03 0.02 0.02 0.03 0.04 0.04 0.03 0.03 0.04 0.04 0.05 0.05 0.05 0.05 0.05 0.04 0.04 0.03 0.02 0.02 0.02 0.01 0.01 0.01 0.01 0.01 0.02 0.01 0.01 0.01 0.02
0.03 0.02 0.01 0.01 0.00 0.01 0.01 0.00 0.01 0.01 0.01 0.01 0.02 0.03 0.02 0.02 0.02 0.02 0.02 0.03 0.03 0.03 0.04 0.04 0.03 0.04 0.04 0.03 0.03 0.03 0.02 0.02 0.02 0.02 0.02 0.01 0.01 0.01 0.01 0.01 0.01 0.01 0.01 0.01
0.02 0.02 0.02 0.01 0.00 0.00 0.01 0.01 0.01 0.01 0.01 0.01 0.01 0.02 0.02 0.03 0.03 0.02 0.03 0.03 0.04 0.03 0.02 0.02 0.02 0.02 0.02 0.03 0.02 0.02 0.02 0.02 0.03 0.02 0.01 0.01 0.01 0.00 0.00 0.00 0.00 0.01 0.01 0.01
0.00 0.00 0.00 0.00 0.00 0.00 0.00 0.01 0.01 0.01 0.01 0.01 0.02 0.02 0.01 0.02 0.03 0.04 0.03 0.03 0.03 0.03 0.03 0.02 0.02 0.02 0.02 0.02 0.01 0.02 0.02 0.03 0.03 0.01 0.01 0.01 0.01 0.00 0.00 0.00 0.00 0.00 0.00 0.00
0.00 0.00 0.01 0.00 0.00 0.00 0.00 0.00 0.01 0.01 0.01 0.01 0.02 0.01 0.01 0.01 0.01 0.02 0.03 0.03 0.02 0.03 0.03 0.02 0.02 0.02 0.01 0.01 0.01 0.02 0.02 0.02 0.02 0.02 0.01 0.00 0.00 0.00 0.00 0.00 0.00 0.00 0.00 0.00
0.00 0.00 0.00 0.00 0.00 0.00 0.00 0.00 0.00 0.00 0.00 0.01 0.02 0.01 0.01 0.01 0.01 0.01 0.02 0.03 0.03 0.02 0.02 0.02 0.02 0.02 0.01 0.01 0.01 0.02 0.02 0.01 0.01 0.01 0.01 0.00 0.00 0.00 0.00 0.00 0.00 0.00 0.00 0.00
0.00 0.00 0.00 0.00 0.00 0.00 0.00 0.01 0.00 0.00 0.00 0.01 0.02 0.01 0.01 0.01 0.01 0.01 0.02 0.02 0.02 0.02 0.02 0.02 0.02 0.01 0.01 0.01 0.01 0.02 0.02 0.00 0.00 0.01 0.01 0.00 0.00 0.00 0.00 0.00 0.00 0.00 0.00 0.00
0.00 0.00 0.01 0.01 0.01 0.01 0.00 0.00 0.00 0.00 0.00 0.00 0.01 0.01 0.01 0.02 0.02 0.02 0.02 0.02 0.01 0.02 0.02 0.02 0.02 0.01 0.01 0.01 0.01 0.01 0.00 0.00 0.00 0.00 0.00 0.00 0.00 0.00 0.00 0.00 0.00 0.00 0.00 0.00
0.00 0.00 0.00 0.01 0.00 0.00 0.00 0.00 0.00 0.00 0.00 0.00 0.00 0.01 0.01 0.03 0.03 0.02 0.02 0.02 0.02 0.02 0.02 0.01 0.01 0.00 0.00 0.00 0.00 0.00 0.00 0.00 0.00 0.00 0.00 0.00 0.00 0.00 0.00 0.00 0.00 0.00 0.00 0.00
0.01 0.00 0.00 0.00 0.00 0.00 0.00 0.00 0.00 0.00 0.00 0.00 0.00 0.01 0.02 0.03 0.03 0.02 0.01 0.02 0.02 0.02 0.02 0.01 0.00 0.00 0.01 0.00 0.00 0.00 0.00 0.00 0.00 0.00 0.00 0.00 0.00 0.00 0.00 0.00 0.00 0.00 0.00 0.00
0.01 0.00 0.00 0.01 0.01 0.00 0.00 0.00 0.00 0.00 0.00 0.00 0.00 0.01 0.02 0.02 0.02 0.01 0.01 0.02 0.02 0.02 0.01 0.01 0.00 0.01 0.01 0.00 0.00 0.00 0.00 0.00 0.00 0.00 0.00 0.00 0.00 0.00 0.00 0.00 0.00 0.00 0.00 0.00
0.01 0.00 0.00 0.00 0.00 0.00 0.00 0.00 0.00 0.01 0.00 0.01 0.01 0.01 0.01 0.02 0.01 0.01 0.01 0.01 0.02 0.02 0.01 0.00 0.00 0.01 0.00 0.00 0.00 0.00 0.00 0.00 0.00 0.00 0.00 0.00 0.00 0.00 0.00 0.00 0.00 0.00 0.00 0.00
0.01 0.00 0.00 0.00 0.00 0.00 0.01 0.01 0.01 0.01 0.01 0.01 0.01 0.01 0.01 0.01 0.01 0.00 0.01 0.02 0.02 0.01 0.00 0.00 0.00 0.00 0.00 0.00 0.00 0.00 0.00 0.00 0.00 0.00 0.00 0.00 0.00 0.00 0.00 0.00 0.00 0.00 0.00 0.00
0.00 0.00 0.00 0.00 0.00 0.00 0.00 0.01 0.00 0.01 0.01 0.00 0.01 0.01 0.01 0.01 0.01 0.01 0.01 0.02 0.01 0.00 0.00 0.00 0.00 0.00 0.00 0.00 0.00 0.00 0.00 0.00 0.00 0.00 0.00 0.00 0.00 0.00 0.00 0.00 0.00 0.00 0.00 0.00
0.00 0.00 0.00 0.00 0.00 0.00 0.01 0.01 0.01 0.00 0.00 0.00 0.00 0.01 0.01 0.01 0.01 0.01 0.01 0.01 0.01 0.00 0.00 0.00 0.00 0.00 0.00 0.00 0.00 0.00 0.00 0.00 0.00 0.00 0.00 0.00 0.00 0.00 0.00 0.00 0.00 0.00 0.00 0.00
0.00 0.00 0.00 0.00 0.00 0.00 0.00 0.01 0.01 0.01 0.01 0.01 0.01 0.02 0.02 0.01 0.00 0.00 0.00 0.00 0.00 0.00 0.00 0.00 0.00 0.00 0.00 0.00 0.00 0.00 0.00 0.00 0.00 0.00 0.00 0.00 0.00 0.00 0.00 0.00 0.00 0.00 0.00 0.00
0.00 0.00 0.00 0.00 0.00 0.00 0.00 0.00 0.01 0.01 0.01 0.01 0.02 0.02 0.03 0.02 0.01 0.01 0.00 0.00 0.00 0.00 0.00 0.00 0.00 0.00 0.00 0.00 0.00 0.00 0.00 0.00 0.00 0.00 0.00 0.00 0.00 0.00 0.00 0.00 0.00 0.00 0.00 0.00
0.00 0.00 0.00 0.00 0.00 0.00 0.00 0.00 0.00 0.01 0.01 0.01 0.01 0.01 0.01 0.00 0.00 0.01 0.01 0.00 0.00 0.00 0.00 0.00 0.00 0.00 0.00 0.00 0.00 0.00 0.00 0.00 0.00 0.00 0.00 0.00 0.00 0.00 0.00 0.00 0.00 0.00 0.00 0.00
MSLP
1011.18 1010.71 1010.24 1009.87 1009.70 1009.78 1010.11 1010.65 1011.31 1012.00 1012.63 1013.13 1013.47 1013.67 1013.76 1013.81 1013.91 1014.12 1014.48 1015.01 1015.67 1016.42 1017.19 1017.90 1018.48 1018.92 1019.18 1019.27 1019.25 1019.16 1019.05 1018.96 1018.93 1018.97 1019.07 1019.21 1019.37 1019.52 1019.64 1019.71 1019.71 1019.64 1019.51 1019.33
1011.63 1011.15 1010.63 1010.17 1009.89 1009.85 1010.07 1010.54 1011.20 1011.96 1012.72 1013.41 1013.97 1014.39 1014.67 1014.87 1015.05 1015.25 1015.55 1015.94 1016.45 1017.02 1017.62 1018.19 1018.67 1019.04 1019.27 1019.37 1019.36 1019.30 1019.21 1019.14 1019.12 1019.17 1019.28 1019.44 1019.62 1019.80 1019.94 1020.04 1020.06 1020.02 1019.92 1019.75
1012.17 1011.73 1011.20 1010.71 1010.36 1010.23 1010.37 1010.78 1011.41 1012.20 1013.04 1013.86 1014.57 1015.14 1015.57 1015.87 1016.09 1016.27 1016.48 1016.75 1017.09 1017.49 1017.93 1018.36 1018.74 1019.05 1019.26 1019.37 1019.40 1019.38 1019.34 1019.32 1019.34 1019.41 1019.54 1019.71 1019.91 1020.09 1020.25 1020.36 1020.40 1020.37 1020.28 1020.12
1012.69 1012.32 1011.84 1011.35 1010.98 1010.80 1010.88 1011.23 1011.82 1012.59 1013.45 1014.33 1015.13 1015.79 1016.30 1016.66 1016.90 1017.06 1017.19 1017.35 1017.54 1017.79 1018.08 1018.39 1018.69 1018.96 1019.16 1019.30 1019.38 1019.42 1019.45 1019.48 1019.55 1019.66 1019.81 1020.00 1020.19 1020.38 1020.53 1020.63 1020.67 1020.65 1020.56 1020.43
1013.05 1012.78 1012.37 1011.94 1011.58 1011.38 1011.42 1011.71 1012.24 1012.97 1013.82 1014.70 1015.53 1016.24 1016.80 1017.19 1017.44 1017.58 1017.66 1017.73 1017.82 1017.95 1018.13 1018.35 1018.59 1018.82 1019.03 1019.20 1019.33 1019.44 1019.53 1019.64 1019.75 1019.90 1020.07 1020.26 1020.45 1020.63 1020.76 1020.85 1020.89 1020.86 1020.78 1020.66
1013.16 1012.99 1012.69 1012.34 1012.03 1011.85 1011.86 1012.11 1012.59 1013.27 1014.08 1014.93 1015.76 1016.48 1017.06 1017.48 1017.74 1017.88 1017.94 1017.96 1017.99 1018.05 1018.16 1018.31 1018.51 1018.72 1018.94 1019.14 1019.32 1019.49 1019.64 1019.80 1019.96 1020.14 1020.33 1020.52 1020.70 1020.86 1020.97 1021.04 1021.06 1021.03 1020.95 1020.84
1012.98 1012.92 1012.74 1012.49 1012.26 1012.12 1012.15 1012.39 1012.83 1013.45 1014.21 1015.03 1015.84 1016.56 1017.16 1017.60 1017.89 1018.05 1018.12 1018.13 1018.14 1018.17 1018.25 1018.37 1018.54 1018.75 1018.97 1019.19 1019.41 1019.62 1019.82 1020.01 1020.21 1020.40 1020.60 1020.78 1020.95 1021.09 1021.18 1021.23 1021.24 1021.20 1021.12 1021.02
1012.55 1012.60 1012.54 1012.41 1012.28 1012.23 1012.30 1012.54 1012.97 1013.56 1014.28 1015.06 1015.85 1016.57 1017.18 1017.65 1017.98 1018.18 1018.29 1018.33 1018.35 1018.39 1018.46 1018.58 1018.74 1018.94 1019.17 1019.40 1019.64 1019.87 1020.09 1020.30 1020.50 1020.70 1020.89 1021.07 1021.22 1021.34 1021.42 1021.45 1021.44 1021.40 1021.33 1021.24
1011.98 1012.14 1012.20 1012.20 1012.19 1012.22 1012.37 1012.65 1013.08 1013.66 1014.35 1015.10 1015.87 1016.59 1017.21 1017.72 1018.09 1018.35 1018.51 1018.60 1018.66 1018.73 1018.82 1018.94 1019.11 1019.31 1019.53 1019.77 1020.00 1020.23 1020.45 1020.66 1020.86 1021.05 1021.22 1021.38 1021.51 1021.61 1021.68 1021.71 1021.70 1021.65 1021.59 1021.51
1011.40 1011.65 1011.82 1011.95 1012.07 1012.22 1012.44 1012.78 1013.24 1013.82 1014.49 1015.22 1015.97 1016.68 1017.31 1017.84 1018.25 1018.56 1018.77 1018.92 1019.03 1019.14 1019.26 1019.40 1019.58 1019.79 1020.01 1020.24 1020.46 1020.68 1020.88 1021.07 1021.25 1021.41 1021.56 1021.70 1021.81 1021.90 1021.96 1021.98 1021.97 1021.94 1021.88 1021.80
1010.92 1011.25 1011.53 1011.78 1012.02 1012.28 1012.60 1013.00 1013.49 1014.08 1014.74 1015.45 1016.17 1016.85 1017.47 1018.01 1018.44 1018.78 1019.04 1019.24 1019.40 1019.55 1019.70 1019.88 1020.07 1020.29 1020.51 1020.73 1020.94 1021.14 1021.32 1021.48 1021.63 1021.76 1021.87 1021.98 1022.07 1022.14 1022.19 1022.22 1022.22 1022.19 1022.14 1022.07
1010.60 1011.00 1011.38 1011.74 1012.09 1012.46 1012.86 1013.31 1013.84 1014.43 1015.07 1015.75 1016.43 1017.08 1017.67 1018.19 1018.62 1018.97 1019.25 1019.48 1019.68 1019.86 1020.06 1020.26 1020.48 1020.71 1020.94 1021.16 1021.36 1021.54 1021.70 1021.83 1021.93 1022.02 1022.09 1022.16 1022.22 1022.27 1022.31 1022.34 1022.35 1022.33 1022.30 1022.23
1010.44 1010.90 1011.37 1011.82 1012.26 1012.71 1013.18 1013.69 1014.23 1014.82 1015.44 1016.07 1016.70 1017.30 1017.84 1018.32 1018.73 1019.07 1019.35 1019.59 1019.81 1020.03 1020.25 1020.48 1020.73 1020.98 1021.23 1021.46 1021.66 1021.83 1021.96 1022.05 1022.11 1022.16 1022.18 1022.20 1022.23 1022.25 1022.27 1022.29 1022.30 1022.30 1022.28 1022.22
1010.36 1010.88 1011.41 1011.94 1012.46 1012.98 1013.50 1014.04 1014.59 1015.17 1015.75 1016.34 1016.91 1017.45 1017.94 1018.37 1018.73 1019.05 1019.32 1019.56 1019.79 1020.03 1020.27 1020.53 1020.81 1021.08 1021.35 1021.59 1021.80 1021.96 1022.07 1022.13 1022.15 1022.14 1022.12 1022.09 1022.06 1022.04 1022.03 1022.04 1022.05 1022.05 1022.04 1022.00
1010.28 1010.85 1011.44 1012.02 1012.60 1013.16 1013.72 1014.27 1014.83 1015.39 1015.95 1016.49 1017.01 1017.49 1017.92 1018.31 1018.64 1018.92 1019.17 1019.41 1019.64 1019.89 1020.15 1020.44 1020.74 1021.04 1021.33 1021.58 1021.79 1021.95 1022.04 1022.08 1022.06 1022.00 1021.91 1021.82 1021.74 1021.67 1021.62 1021.60 1021.59 1021.59 1021.59 1021.57
1010.12 1010.74 1011.37 1011.99 1012.60 1013.19 1013.77 1014.33 1014.89 1015.43 1015.96 1016.47 1016.96 1017.40 1017.80 1018.15 1018.46 1018.72 1018.96 1019.20 1019.43 1019.69 1019.96 1020.26 1020.58 1020.90 1021.20 1021.47 1021.68 1021.83 1021.91 1021.92 1021.86 1021.75 1021.61 1021.46 1021.31 1021.18 1021.09 1021.03 1021.00 1020.99 1020.99 1020.98
1009.87 1010.51 1011.16 1011.81 1012.43 1013.03 1013.61 1014.18 1014.72 1015.26 1015.78 1016.28 1016.75 1017.19 1017.58 1017.92 1018.22 1018.49 1018.74 1018.97 1019.22 1019.48 1019.76 1020.07 1020.40 1020.72 1021.03 1021.30 1021.52 1021.66 1021.72 1021.70 1021.60 1021.45 1021.26 1021.05 1020.84 1020.66 1020.52 1020.41 1020.35 1020.33 1020.33 1020.33
1009.54 1010.19 1010.85 1011.49 1012.11 1012.70 1013.27 1013.82 1014.36 1014.89 1015.41 1015.92 1016.40 1016.85 1017.27 1017.64 1017.97 1018.26 1018.53 1018.78 1019.04 1019.31 1019.60 1019.91 1020.23 1020.55 1020.86 1021.12 1021.33 1021.46 1021.50 1021.46 1021.34 1021.15 1020.92 1020.66 1020.40 1020.17 1019.98 1019.84 1019.75 1019.70 1019.69 1019.69
1009.20 1009.85 1010.49 1011.10 1011.69 1012.25 1012.79 1013.32 1013.84 1014.37 1014.90 1015.42 1015.93 1016.43 1016.88 1017.30 1017.68 1018.02 1018.33 1018.62 1018.90 1019.18 1019.47 1019.78 1020.09 1020.39 1020.68 1020.93 1021.12 1021.24 1021.27 1021.21 1021.07 1020.86 1020.61 1020.32 1020.03 1019.77 1019.54 1019.37 1019.25 1019.18 1019.16 1019.16
1008.95 1009.57 1010.17 1010.73 1011.26 1011.77 1012.26 1012.75 1013.25 1013.76 1014.29 1014.83 1015.38 1015.92 1016.43 1016.91 1017.35 1017.74 1018.10 1018.43 1018.73 1019.03 1019.33 1019.62 1019.92 1020.21 1020.48 1020.70 1020.88 1020.98 1021.00 1020.94 1020.80 1020.59 1020.33 1020.04 1019.74 1019.46 1019.22 1019.02 1018.89 1018.80 1018.76 1018.76
1008.85 1009.42 1009.96 1010.45 1010.91 1011.34 1011.76 1012.19 1012.64 1013.13 1013.65 1014.20 1014.77 1015.34 1015.90 1016.44 1016.93 1017.39 1017.79 1018.16 1018.49 1018.80 1019.10 1019.39 1019.67 1019.94 1020.18 1020.39 1020.55 1020.65 1020.67 1020.62 1020.49 1020.29 1020.05 1019.77 1019.49 1019.21 1018.97 1018.78 1018.63 1018.53 1018.48 1018.47
1008.93 1009.43 1009.89 1010.30 1010.67 1011.01 1011.34 1011.70 1012.09 1012.52 1013.01 1013.55 1014.12 1014.71 1015.30 1015.87 1016.41 1016.90 1017.35 1017.74 1018.10 1018.42 1018.72 1019.00 1019.27 1019.52 1019.75 1019.95 1020.10 1020.20 1020.23 1020.19 1020.09 1019.93 1019.72 1019.48 1019.22 1018.97 1018.75 1018.56 1018.42 1018.32 1018.27 1018.24
1009.14 1009.58 1009.96 1010.28 1010.55 1010.79 1011.04 1011.31 1011.62 1011.99 1012.43 1012.92 1013.47 1014.05 1014.64 1015.22 1015.77 1016.28 1016.74 1017.15 1017.52 1017.85 1018.15 1018.43 1018.69 1018.93 1019.15 1019.34 1019.50 1019.60 1019.65 1019.65 1019.58 1019.46 1019.29 1019.09 1018.88 1018.67 1018.48 1018.32 1018.19 1018.10 1018.05 1018.02
1009.41 1009.79 1010.10 1010.33 1010.52 1010.67 1010.83 1011.01 1011.25 1011.55 1011.92 1012.35 1012.85 1013.39 1013.94 1014.50 1015.03 1015.53 1015.99 1016.40 1016.77 1017.10 1017.40 1017.67 1017.93 1018.16 1018.38 1018.58 1018.74 1018.86 1018.94 1018.96 1018.94 1018.86 1018.74 1018.59 1018.43 1018.26 1018.11 1017.98 1017.88 1017.80 1017.76 1017.73
1009.65 1009.98 1010.23 1010.40 1010.51 1010.60 1010.69 1010.80 1010.97 1011.19 1011.49 1011.86 1012.29 1012.76 1013.26 1013.77 1014.26 1014.72 1015.15 1015.54 1015.89 1016.21 1016.50 1016.77 1017.03 1017.27 1017.49 1017.69 1017.87 1018.01 1018.11 1018.16 1018.17 1018.13 1018.06 1017.96 1017.84 1017.72 1017.60 1017.51 1017.43 1017.38 1017.36 1017.35
1009.77 1010.07 1010.27 1010.40 1010.48 1010.53 1010.57 1010.64 1010.75 1010.93 1011.16 1011.46 1011.82 1012.22 1012.65 1013.08 1013.51 1013.91 1014.30 1014.65 1014.97 1015.26 1015.54 1015.80 1016.05 1016.30 1016.53 1016.74 1016.92 1017.08 1017.20 1017.27 1017.31 1017.30 1017.26 1017.20 1017.11 1017.03 1016.95 1016.89 1016.85 1016.83 1016.83 1016.85
1009.73 1010.00 1010.18 1010.30 1010.37 1010.41 1010.44 1010.50 1010.59 1010.74 1010.93 1011.18 1011.47 1011.80 1012.15 1012.50 1012.85 1013.19 1013.51 1013.80 1014.08 1014.35 1014.60 1014.85 1015.09 1015.33 1015.55 1015.77 1015.96 1016.12 1016.25 1016.34 1016.39 1016.41 1016.39 1016.34 1016.29 1016.24 1016.19 1016.16 1016.15 1016.17 1016.20 1016.25
Thickness
5705 5716 5719 5718 5721 5723 5717 5710 5700 5695 5690 5685 5683 5678 5670 5664 5660 5652 5647 5642 5637 5630 5625 5620 5616 5612 5608 5604 5601 5597 5594 5590 5587 5585 5584 5582 5581 5580 5580 5580 5580 5579 5579 5578
5700 5712 5714 5711 5716 5717 5713 5710 5701 5692 5681 5684 5680 5676 5666 5659 5653 5647 5641 5636 5630 5624 5619 5614 5609 5605 5600 5596 5593 5590 5586 5583 5581 5578 5576 5575 5574 5573 5572 5571 5571 5571 5570 5570
5690 5707 5705 5691 5704 5707 5705 5704 5699 5685 5678 5680 5670 5664 5659 5654 5649 5643 5638 5632 5625 5619 5613 5608 5603 5599 5594 5590 5586 5583 5580 5577 5574 5572 5570 5569 5568 5565 5564 5563 5563 5562 5562 5561
5690 5691 5672 5691 5712 5707 5698 5695 5695 5688 5681 5677 5668 5661 5657 5653 5646 5639 5633 5626 5620 5614 5608 5603 5598 5593 5589 5584 5580 5576 5573 5571 5568 5566 5564 5563 5561 5559 5558 5556 5556 5555 5555 5554
5684 5678 5676 5688 5701 5701 5689 5681 5688 5680 5675 5670 5665 5657 5648 5647 5643 5635 5628 5621 5615 5610 5605 5599 5593 5588 5584 5579 5575 5571 5568 5566 5564 5562 5559 5557 5555 5554 5553 5551 5550 5550 5550 5549
5684 5672 5663 5676 5698 5706 5692 5670 5682 5678 5670 5665 5660 5647 5638 5640 5637 5629 5622 5616 5611 5607 5601 5595 5589 5585 5580 5575 5571 5567 5565 5562 5560 5558 5555 5553 5550 5549 5548 5548 5547 5547 5546 5546
5682 5673 5671 5689 5701 5700 5670 5664 5678 5675 5669 5663 5656 5649 5642 5637 5631 5624 5618 5612 5607 5602 5597 5591 5586 5581 5576 5571 5567 5564 5562 5559 5556 5554 5552 5550 5548 5546 5545 5545 5544 5544 5543 5543
5682 5671 5665 5692 5693 5679 5672 5679 5677 5671 5666 5658 5651 5645 5639 5632 5625 5619 5614 5608 5604 5598 5592 5587 5582 5577 5573 5568 5566 5563 5559 5556 5553 5551 5550 5548 5545 5544 5543 5542 5542 5542 5542 5542
5683 5675 5683 5689 5686 5685 5684 5677 5672 5667 5661 5655 5647 5641 5635 5628 5622 5616 5611 5605 5601 5595 5589 5584 5579 5575 5571 5567 5564 5561 5557 5553 5551 5549 5547 5545 5544 5543 5542 5542 5542 5542 5542 5542
5685 5682 5685 5686 5686 5685 5681 5675 5671 5666 5660 5653 5645 5638 5631 5625 5619 5613 5608 5603 5598 5593 5587 5582 5578 5574 5570 5566 5563 5559 5555 5553 5550 5548 5546 5544 5543 5543 5542 5542 5542 5542 5543 5543
5682 5683 5683 5682 5681 5679 5676 5673 5668 5662 5657 5650 5643 5636 5630 5623 5617 5612 5607 5602 5597 5591 5586 5581 5578 5574 5570 5566 5562 5558 5555 5553 5551 5549 5547 5545 5542 5540 5541 5539 5539 5540 5542 5544
5682 5686 5682 5676 5679 5678 5671 5666 5663 5657 5652 5648 5642 5635 5629 5622 5617 5612 5606 5601 5596 5592 5587 5583 5579 5574 5571 5567 5563 5559 5555 5553 5552 5551 5549 5548 5545 5543 5540 5540 5540 5540 5540 5541
5694 5694 5687 5683 5680 5676 5670 5665 5661 5656 5650 5644 5639 5634 5628 5621 5616 5611 5607 5602 5597 5593 5589 5585 5581 5576 5573 5569 5565 5561 5558 5556 5555 5554 5553 5552 5550 5549 5546 5543 5542 5543 5543 5543
5696 5690 5682 5679 5676 5674 5669 5664 5659 5653 5648 5643 5637 5632 5627 5621 5615 5611 5607 5603 5600 5595 5591 5587 5583 5579 5576 5572 5568 5565 5562 5560 5558 5558 5557 5557 5556 5556 5555 5552 5550 5549 5548 5548
5693 5689 5683 5679 5675 5671 5667 5661 5655 5649 5645 5640 5636 5631 5626 5621 5616 5612 5609 5605 5601 5597 5593 5590 5586 5582 5579 5575 5571 5568 5567 5565 5563 5562 5562 5561 5561 5562 5562 5560 5559 5558 5557 5555
5691 5687 5682 5676 5671 5668 5664 5659 5653 5648 5644 5639 5635 5631 5626 5622 5618 5614 5610 5607 5602 5598 5595 5592 5588 5585 5582 5579 5575 5572 5570 5567 5566 5566 5566 5566 5567 5567 5568 5567 5566 5565 5565 5565
5685 5680 5677 5673 5670 5667 5664 5660 5656 5650 5645 5640 5635 5632 5627 5623 5618 5614 5611 5608 5605 5601 5598 5594 5591 5589 5587 5583 5580 5578 5577 5574 5570 5570 5571 5571 5572 5572 5572 5572 5572 5572 5573 5574
5691 5687 5682 5678 5673 5669 5666 5663 5658 5653 5647 5643 5638 5633 5627 5623 5619 5615 5613 5610 5606 5603 5600 5598 5595 5593 5590 5587 5585 5584 5583 5581 5579 5578 5577 5577 5576 5577 5577 5577 5578 5578 5579 5578
5692 5689 5685 5682 5678 5673 5668 5664 5659 5655 5650 5645 5639 5634 5629 5625 5621 5618 5615 5611 5607 5604 5603 5602 5598 5595 5593 5591 5588 5587 5587 5586 5584 5583 5583 5581 5581 5582 5582 5583 5584 5585 5586 5586
5693 5690 5686 5682 5679 5674 5669 5665 5661 5656 5651 5647 5641 5635 5630 5627 5624 5620 5617 5614 5612 5611 5609 5606 5601 5599 5596 5594 5591 5591 5591 5591 5590 5589 5588 5588 5588 5588 5589 5589 5590 5591 5591 5592
5692 5689 5685 5682 5679 5676 5672 5667 5661 5656 5652 5648 5643 5638 5634 5630 5627 5623 5619 5617 5616 5615 5612 5607 5605 5603 5601 5599 5594 5595 5595 5595 5594 5594 5593 5593 5593 5594 5595 5595 5595 5596 5597 5598
5691 5688 5686 5682 5678 5674 5671 5668 5663 5658 5653 5649 5645 5641 5637 5632 5630 5627 5624 5622 5621 5617 5615 5613 5610 5607 5605 5602 5601 5600 5600 5599 5599 5599 5598 5598 5598 5598 5599 5599 5600 5601 5602 5602
5690 5688 5685 5681 5677 5673 5670 5666 5663 5659 5654 5650 5647 5644 5640 5637 5634 5630 5627 5627 5625 5620 5618 5618 5615 5610 5607 5604 5605 5605 5605 5604 5603 5604 5604 5604 5604 5604 5604 5605 5605 5606 5606 5606
5689 5686 5684 5681 5677 5672 5667 5665 5663 5660 5657 5654 5651 5648 5644 5640 5638 5637 5636 5631 5627 5623 5622 5620 5616 5612 5608 5609 5609 5609 5609 5608 5608 5608 5608 5609 5610 5610 5610 5610 5610 5611 5611 5611
5687 5685 5681 5677 5673 5671 5667 5665 5662 5660 5658 5656 5654 5652 5649 5646 5643 5642 5640 5636 5630 5625 5624 5621 5617 5613 5612 5613 5613 5613 5613 5612 5612 5613 5613 5613 5613 5613 5614 5614 5614 5614 5613 5613
5685 5682 5680 5676 5675 5673 5671 5668 5665 5663 5661 5658 5656 5655 5652 5650 5648 5645 5641 5638 5635 5628 5628 5626 5621 5616 5616 5617 5617 5617 5616 5616 5616 5615 5615 5614 5614 5615 5615 5615 5615 5615 5615 5615
5683 5681 5677 5677 5676 5676 5674 5671 5668 5666 5664 5662 5659 5657 5655 5652 5649 5647 5644 5641 5638 5633 5631 5630 5628 5626 5623 5622 5622 5621 5620 5620 5620 5619 5618 5618 5617 5616 5616 5615 5615 5615 5615 5614